This demonstration page uses our WeatherBlox Daily Observations layout. Learn more.

Left ArrowRight Arrow

39.92423, -83.80882

Hourly Observations for August 8, 2019

Temp ( °F °C ) Dew Point ( °F °C ) Humidity (%) Winds ( mph kmh ) Pressure ( in mb ) Visibility ( mi km ) Precip ( " mm )
12:56 am 00:56 Clear 65 18.3 62 16.7 90 90 SW 5 7 29.85 1011 10 16.0934 N/A
1:56 am 01:56 Partly Cloudy 66 18.9 61 16.1 84 84 SW 3 6 29.86 1011 10 16.0934 N/A
2:56 am 02:56 Mostly Clear 63 17.2 61 16.1 93 93 N N/A 29.85 1011 10 16.0934 N/A
3:56 am 03:56 Mostly Cloudy 64 17.8 62 16.7 93 93 SW 5 7 29.84 1011 10 16.0934 N/A
4:56 am 04:56 Clear 64 17.8 62 16.7 93 93 SW 3 6 29.84 1010 10 16.0934 N/A
5:56 am 05:56 Clear 62 16.7 62 16.7 100 100 WSW 6 9 29.84 1010 10 16.0934 N/A
6:56 am 06:56 Sunny 62 16.7 62 16.7 100 100 SW 5 7 29.84 1011 10 16.0934 N/A
7:56 am 07:56 Sunny 66 18.9 64 17.8 93 93 SSW 6 9 29.84 1010 10 16.0934 N/A
8:56 am 08:56 Sunny 72 22.2 66 18.9 82 82 W 9 15 29.86 1011 10 16.0934 N/A
9:56 am 09:56 Sunny 77 25 66 18.9 69 69 WSW 10 17 29.86 1011 10 16.0934 N/A
10:56 am 10:56 Partly Cloudy 80 26.7 67 19.4 64 64 W 13 20 29.86 1011 10 16.0934 N/A
12:56 pm 12:56 Cloudy 84 28.9 68 20 59 59 W 18 30 29.85 1011 10 16.0934 N/A
1:56 pm 13:56 Mostly Cloudy 85 29.4 68 20 57 57 W 15 24 29.85 1011 10 16.0934 N/A
2:56 pm 14:56 Partly Cloudy 87 30.6 68 20 53 53 W 18 30 29.84 1011 10 16.0934 N/A
3:56 pm 15:56 Mostly Cloudy 88 31.1 68 20 52 52 W 16 26 29.83 1010 10 16.0934 N/A
4:56 pm 16:56 Mostly Sunny 89 31.7 67 19.4 48 48 W 17 28 29.82 1010 10 16.0934 N/A
5:56 pm 17:56 Mostly Cloudy 84 28.9 69 20.6 61 61 WSW 14 22 29.82 1010 10 16.0934 N/A
6:33 pm 18:33 Partly Cloudy with Nearby Thunderstorms 81 27 68 20 66 66 W 15 24 29.79 1009 10 16.0934 N/A
6:47 pm 18:47 Partly Cloudy with Nearby Thunderstorms 82 28 66 19 58 58 W 17 28 29.8 1009 10 16.0934 N/A
6:56 pm 18:56 Mostly Sunny 80 26.7 68 20 67 67 W 9 15 29.85 1011 10 16.0934 N/A
7:56 pm 19:56 Sunny 78 25.6 67 19.4 69 69 WNW 8 13 29.84 1010 10 16.0934 N/A
8:56 pm 20:56 Mostly Cloudy 76 24.4 67 19.4 74 74 W 5 7 29.85 1011 10 16.0934 N/A
9:56 pm 21:56 Mostly Clear 74 23.3 67 19.4 79 79 WNW 8 13 29.87 1012 10 16.0934 N/A
10:56 pm 22:56 Mostly Clear 70 21.1 67 19.4 90 90 W 6 9 29.87 1012 10 16.0934 N/A
11:48 pm 23:48 Mostly Cloudy with Heavy Thunderstorms 70 21 66 19 88 88 W 13 20 29.84 1010 10 16.0934 0.05 1.27
11:56 pm 23:56 Mostly Cloudy with Light Thunderstorms 68 20 66 18.9 93 93 W 7 11 29.84 1011 10 16.0934 0.05 1.27

Powered by AerisWeather